Location: Baia Mare
(47.6567°N, 23.5850°E)
Time: 12:52:34
(UTC+03:00)

ISS - Pass Details

Date: 31 May 2018
Orbit: 403 x 408 km, 51.6° (Epoch: 21 September)

Event Time Altitude Azimuth Distance (km) Brightness Sun altitude
Rises 00:52:26 0° 290° (WNW) 2,325 0.4 -20.1°
Reaches altitude 10° 00:54:40 10° 280° (W) 1,460 -0.8 -20.2°
Enters shadow 00:55:50 18° 266° (W) 1,063 -1.7 -20.2°
